Location: Ernsee
(50.8780°N, 12.0389°E)
Time: 21:14:07
(UTC+00:00)

USA 238 DEB - Pass Details

Date: 20 January 2020
Orbit: 1021 x 1191 km, 63.4° (Epoch: 10 February)

Event Time Altitude Azimuth Distance (km) Brightness Sun altitude
Exits shadow 04:51:10 31° 300° (WNW) 1,884 4.5 -20.5°
Maximum altitude 04:54:37 58° 236° (SW) 1,332 3.9 -19.9°
Drops below altitude 10° 05:01:50 10° 160° (SSE) 3,089 6.5 -18.8°
Sets 05:04:38 0° 156° (SSE) 4,060 7.2 -18.4°
